Lid_Strength_Index
-1 -1 -1 0 -1 -1 -2 -1 -1 -1 -2 -1 -1 -0 -0 0 0 2 4 2 0 -2 -1 2 2 3 4 5 4 5 11 13 11 10 11 9 9 8 8 7 7 5 6 4 2
-0 -1 -1 -1 -1 -1 -1 -2 -1 -1 -2 -1 -1 -1 -0 0 2 4 1 -1 -1 -1 2 4 5 4 6 6 6 8 11 11 9 8 10 9 9 9 9 9 8 6 4 3 3
0 -0 -0 -1 -1 -0 -0 -1 -1 -1 -1 -1 -1 -1 -1 -0 4 5 -0 -2 -1 -0 2 3 3 4 7 7 7 8 11 8 8 7 7 8 9 8 9 10 8 7 6 4 4
1 0 -0 -1 -1 -1 -1 -1 -1 -1 -1 -1 -1 -1 -1 1 11 3 -0 -2 -1 1 2 4 5 8 9 9 7 10 8 7 6 8 8 9 8 9 9 9 7 6 4 4 4
1 1 0 -0 -0 -1 -1 -1 -1 -1 -1 -1 -1 -1 1 5 5 1 -1 -1 0 2 4 5 6 8 10 9 9 9 8 7 6 6 8 8 9 9 8 7 7 4 4 4 4
1 1 1 0 0 -0 -1 -1 -1 -1 -1 -1 -1 -1 3 8 0 -0 -0 0 1 2 3 5 6 6 8 9 10 9 8 7 7 7 7 8 8 7 7 6 7 6 5 4 4
0 1 1 1 0 0 -0 -1 -1 -1 -1 -2 -2 -0 4 5 0 0 -0 1 1 2 4 3 3 6 7 9 7 7 10 9 8 7 8 7 10 9 6 5 6 7 8 6 4
-0 -0 0 1 1 0 -0 -1 -1 -1 -1 -2 -2 1 6 1 0 0 0 1 1 1 2 2 2 5 7 6 8 10 10 13 9 9 7 8 13 8 6 6 6 6 8 8 7
-1 -0 -1 -0 0 0 -0 -1 -1 -1 -1 -2 2 4 8 1 3 1 1 3 2 2 2 1 3 7 7 10 13 12 15 13 12 9 9 9 12 8 7 8 8 7 6 7 6
-1 -1 -1 -1 -1 -0 -1 -1 -1 -1 -0 -0 2 6 7 7 3 1 1 1 4 4 5 6 7 10 10 12 17 15 14 12 13 11 11 10 11 8 8 9 9 9 7 7 7
-1 -1 -1 -1 -1 -1 -0 1 4 5 4 6 7 9 8 5 2 3 2 3 4 6 10 8 12 13 12 10 10 11 12 13 11 9 9 10 10 9 9 9 9 10 9 8 7
-1 -1 -1 -1 -1 -2 -0 4 4 3 8 4 5 6 5 4 6 4 2 7 8 11 9 11 13 10 9 9 10 11 12 13 10 9 10 11 11 9 7 7 8 8 8 8 7
-1 -1 -1 -2 -2 -0 3 3 -0 1 8 7 5 6 6 4 7 7 4 6 9 10 11 12 10 8 9 11 12 12 13 13 12 10 10 12 13 11 9 7 7 7 7 7 7
-2 -2 -1 -2 1 2 4 1 0 1 12 11 9 6 5 4 8 3 3 6 8 11 10 11 8 10 11 12 11 14 10 11 12 13 17 12 18 14 11 10 9 8 7 7 7
-1 -1 -2 -2 3 4 3 1 0 3 20 9 9 3 4 8 7 7 3 6 10 10 10 12 11 11 12 11 10 12 9 11 12 14 16 16 17 16 12 13 11 9 9 8 6
-1 -1 -1 0 1 2 1 0 2 13 20 13 9 9 9 8 8 6 7 5 6 10 9 10 7 8 10 8 9 8 11 11 11 13 18 15 15 18 14 12 11 10 8 8 7
-1 -1 -0 -0 4 0 0 4 13 18 11 13 12 10 10 11 10 9 10 11 12 15 15 12 12 9 8 11 9 10 13 19 20 20 19 15 16 15 13 12 11 10 10 9 8
-1 -1 -0 0 -0 -0 2 9 17 13 13 10 10 10 12 10 11 10 11 13 10 11 14 16 17 11 9 10 12 12 13 18 22 21 20 15 18 16 11 10 10 10 9 8 9
-1 1 1 1 -0 0 7 15 15 13 11 11 11 14 13 11 11 11 12 12 10 10 14 15 15 11 9 9 9 13 15 11 16 22 20 18 16 13 11 11 11 9 9 9 9
2 3 3 -0 -0 3 10 13 12 9 9 10 14 12 15 13 13 13 13 10 11 9 9 12 16 12 10 9 9 11 9 16 15 21 24 19 19 17 14 12 10 11 10 9 8
3 6 3 -0 1 7 13 12 11 8 8 11 12 13 12 13 12 13 13 11 9 9 8 10 12 14 11 13 13 12 14 13 13 15 19 21 19 13 12 12 11 11 9 8 8
4 11 2 1 9 9 12 10 7 9 7 9 10 11 12 12 12 13 13 11 7 8 12 10 13 16 14 12 11 10 12 13 16 17 15 16 17 12 12 11 10 10 9 8 7
7 7 2 3 12 12 9 10 9 9 9 10 11 10 10 12 14 12 11 8 7 9 11 10 14 17 16 13 11 13 12 11 12 13 16 18 16 9 10 11 11 9 8 8 8
6 10 7 6 7 9 11 11 11 8 9 8 9 9 11 12 11 13 12 9 8 8 7 8 13 14 17 15 13 15 13 12 12 16 15 15 13 11 11 11 11 9 8 9 9
6 9 9 11 10 9 9 10 11 12 9 8 10 10 12 14 12 13 11 10 9 8 9 10 14 13 12 14 12 13 13 13 14 13 16 13 13 11 9 10 10 9 10 10 9
8 9 7 9 8 10 9 11 11 10 10 11 11 10 10 12 12 13 11 11 12 9 10 9 14 13 16 14 14 14 12 12 12 12 12 12 12 8 8 9 10 10 10 9 9
3 4 7 8 9 10 10 10 10 9 8 8 8 10 11 10 8 8 7 8 9 10 11 12 13 15 17 14 16 16 13 12 12 11 11 14 11 8 8 9 9 10 9 8 9